TimeEST,TemperatureF,Dew PointF,Humidity,Sea Level PressureIn,VisibilityMPH,Wind Direction,Wind SpeedMPH,Gust SpeedMPH,PrecipitationIn,Events,Conditions,WindDirDegrees,DateUTC
12:58 AM,36.7,36.5,99,29.91,7.0,WNW,4.6,-,N/A,,Overcast,290,2013-12-03 05:58:00
1:58 AM,36.7,36.5,99,29.93,7.0,West,5.8,-,N/A,,Overcast,280,2013-12-03 06:58:00
2:58 AM,36.7,36.3,99,29.91,7.0,WNW,6.9,-,N/A,,Overcast,300,2013-12-03 07:58:00
3:43 AM,35.6,35.6,100,29.88,7.0,NW,10.4,-,N/A,,Overcast,320,2013-12-03 08:43:00
3:58 AM,36.1,36.0,99,29.91,7.0,NW,5.8,-,N/A,,Overcast,310,2013-12-03 08:58:00
4:58 AM,35.6,35.4,99,29.91,7.0,WNW,4.6,-,N/A,,Overcast,300,2013-12-03 09:58:00
5:58 AM,35.8,35.6,99,29.91,7.0,NW,6.9,-,N/A,,Overcast,310,2013-12-03 10:58:00
6:28 AM,35.6,35.6,100,29.90,3.0,WNW,5.8,-,N/A,,Overcast,300,2013-12-03 11:28:00
6:43 AM,35.6,35.6,100,29.90,1.5,NW,5.8,-,N/A,,Overcast,310,2013-12-03 11:43:00
6:58 AM,35.6,35.4,99,29.91,1.2,WNW,5.8,-,N/A,,Overcast,300,2013-12-03 11:58:00
7:58 AM,35.8,35.6,99,29.91,1.2,NW,6.9,-,N/A,,Overcast,310,2013-12-03 12:58:00
8:30 AM,35.6,35.6,100,29.91,3.0,NW,5.8,-,N/A,,Overcast,310,2013-12-03 13:30:00
8:58 AM,36.1,36.0,99,29.93,6.0,NW,8.1,-,N/A,,Overcast,310,2013-12-03 13:58:00
9:58 AM,37.4,37.2,99,29.91,7.0,NW,6.9,-,N/A,,Overcast,320,2013-12-03 14:58:00
10:56 AM,39.7,38.1,94,29.89,10.0,NW,8.1,-,N/A,,Mostly Cloudy,320,2013-12-03 15:56:00
11:19 AM,41.0,37.4,87,29.87,10.0,NW,8.1,-,N/A,,Mostly Cloudy,320,2013-12-03 16:19:00
11:35 AM,42.8,37.4,81,29.87,10.0,WNW,9.2,-,N/A,,Scattered Clouds,300,2013-12-03 16:35:00
11:55 AM,42.8,36.7,79,29.87,10.0,North,9.2,-,N/A,,Scattered Clouds,350,2013-12-03 16:55:00
12:58 PM,45.1,36.0,70,29.86,10.0,NW,5.8,-,N/A,,Mostly Cloudy,320,2013-12-03 17:58:00
1:58 PM,46.6,34.3,62,29.86,10.0,NNW,9.2,-,N/A,,Mostly Cloudy,340,2013-12-03 18:58:00
2:58 PM,44.6,34.0,66,29.86,10.0,NNW,6.9,-,N/A,,Mostly Cloudy,330,2013-12-03 19:58:00
3:58 PM,43.3,34.0,70,29.86,10.0,North,6.9,-,N/A,,Mostly Cloudy,350,2013-12-03 20:58:00
8:58 PM,33.4,30.0,87,29.91,10.0,West,6.9,-,N/A,,Clear,270,2013-12-04 01:58:00
9:58 PM,32.4,28.9,87,29.91,10.0,West,4.6,-,N/A,,Clear,270,2013-12-04 02:58:00
10:58 PM,32.7,29.5,88,29.91,10.0,West,4.6,-,N/A,,Clear,270,2013-12-04 03:58:00
11:58 PM,31.3,28.9,91,29.93,10.0,West,4.6,-,N/A,,Clear,270,2013-12-04 04:58:00